K1VL Weather Reports


Display with metric or nautical units.
time (UTC)temp
F
wind
direction
speed
MPH
gust
MPH
rain 1hr
in
rain 24hr
in
rain mn
in
humidity
%
barometer
mb
20260903195017 76 315 1.0 6.0 0.00 0.01 0.01 80 1013.9
20260903194517 75 293 1.0 5.0 0.00 0.01 0.01 86 1013.9
20260903194017 75 270 1.0 6.0 0.00 0.01 0.01 83 1014.0
20260903193517 75 158 2.0 4.0 0.00 0.01 0.01 83 1014.1
20260903193037 75 225 3.0 9.0 0.00 0.01 0.01 84 1014.2
20260903192517 75 135 1.0 3.0 0.00 0.01 0.01 84 1014.1
20260903192017 75 158 1.0 8.0 0.00 0.01 0.01 84 1014.1
20260903191517 75 158 2.0 6.0 0.00 0.01 0.01 83 1014.1
20260903191017 75 135 2.0 6.0 0.00 0.01 0.01 84 1014.1
20260903190517 74 270 2.0 4.0 0.00 0.01 0.01 84 1014.1
20260903190017 74 113 2.0 6.0 0.00 0.01 0.01 88 1014.1
20260903185518 73 293 1.0 4.0 0.00 0.01 0.01 86 1014.2
20260903185017 73 293 1.0 4.0 0.00 0.01 0.01 86 1014.2
20260903184517 73 315 2.0 4.0 0.00 0.01 0.01 87 1014.2
20260903184017 73 315 2.0 3.0 0.00 0.01 0.01 86 1014.2
20260903183517 74 315 1.0 4.0 0.00 0.01 0.01 86 1014.3
20260903183017 73 293 1.0 5.0 0.00 0.01 0.01 87 1014.3
20260903182517 73 135 1.0 5.0 0.00 0.01 0.01 87 1014.4
20260903182017 74 293 2.0 5.0 0.01 0.01 0.01 85 1014.5
20260903181517 74 293 2.0 8.0 0.01 0.01 0.01 87 1014.4
20260903181017 73 315 1.0 5.0 0.01 0.01 0.01 85 1014.5
20260903180517 73 135 1.0 3.0 0.01 0.01 0.01 86 1014.5
20260903180017 74 135 2.0 8.0 0.01 0.01 0.01 84 1014.6
20260903175517 74 203 2.0 7.0 0.01 0.01 0.01 84 1014.6
20260903175017 73 225 1.0 4.0 0.01 0.01 0.01 86 1014.6
20260903174517 73 135 2.0 7.0 0.01 0.01 0.01 85 1014.7
20260903174017 73 158 1.0 4.0 0.01 0.01 0.01 87 1014.7
20260903173517 72 338 1.0 4.0 0.01 0.01 0.01 87 1014.6
20260903173017 73 315 2.0 5.0 0.01 0.01 0.01 86 1014.8
20260903172515 73 338 1.0 3.0 0.01 0.01 0.01 87 1014.8
20260903172015 72 180 1.0 3.0 0.00 0.00 0.00 87 1014.7
20260903171515 72 248 2.0 5.0 0.00 0.00 0.00 87 1014.8
20260903171015 71 293 1.0 3.0 0.00 0.00 0.00 90 1014.8
20260903170515 70 0 1.0 3.0 0.00 0.00 0.00 90 1014.8
20260903170015 70 315 1.0 3.0 0.00 0.00 0.00 92 1015.0
20260903165515 70 315 2.0 5.0 0.00 0.00 0.00 91 1015.0
20260903165015 70 315 2.0 4.0 0.00 0.00 0.00 90 1015.0
20260903164515 70 315 1.0 4.0 0.00 0.00 0.00 90 1015.0
20260903164015 70 225 1.0 5.0 0.00 0.00 0.00 89 1014.9
20260903163515 70 225 1.0 4.0 0.00 0.00 0.00 90 1015.0
20260903163015 70 315 3.0 6.0 0.00 0.00 0.00 91 1015.1
20260903162515 69 315 1.0 3.0 0.00 0.00 0.00 91 1015.1
20260903162035 69 0.0 1.0 0.00 0.00 0.00 93 1015.1
20260903161535 69 0.0 1.0 0.00 0.00 0.00 93 1015.2
20260903161015 68 0.0 2.0 0.00 0.00 0.00 92 1015.2
20260903160535 69 135 1.0 2.0 0.00 0.00 0.00 93 1015.2
20260903160015 68 135 1.0 3.0 0.00 0.00 0.00 92 1015.2
20260903155515 68 0.0 2.0 0.00 0.00 0.00 93 1015.2
20260903155015 67 0.0 1.0 0.00 0.00 0.00 95 1015.3
20260903154515 67 225 1.0 3.0 0.00 0.00 0.00 94 1015.2
20260903154015 67 0.0 3.0 0.00 0.00 0.00 95 1015.3
20260903153515 66 0.0 2.0 0.00 0.00 0.00 95 1015.5
20260903153015 66 158 1.0 3.0 0.00 0.00 0.00 95 1015.5
20260903152515 66 158 1.0 4.0 0.00 0.00 0.00 95 1015.5
20260903152015 66 180 1.0 4.0 0.00 0.00 0.00 96 1015.6
20260903151515 65 135 1.0 4.0 0.00 0.00 0.00 96 1015.6
20260903151015 65 180 1.0 4.0 0.00 0.00 0.00 97 1015.6
20260903150515 65 135 1.0 2.0 0.00 0.00 0.00 97 1015.5
20260903150015 65 113 2.0 3.0 0.00 0.00 0.00 96 1015.6
20260903145515 65 135 1.0 3.0 0.00 0.00 0.00 96 1015.6
20260903145015 65 0.0 2.0 0.00 0.00 0.00 97 1015.6
20260903144535 65 0.0 0.0 0.00 0.00 0.00 96 1015.6
20260903144035 65 0.0 0.0 0.00 0.00 0.00 97 1015.6
20260903143535 64 0.0 0.0 0.00 0.00 0.00 97 1015.6
20260903143015 64 0.0 0.0 0.00 0.00 0.00 97 1015.6
20260903142515 64 0.0 0.0 0.00 0.00 0.00 97 1015.7
20260903142015 64 0.0 0.0 0.00 0.00 0.00 97 1015.6
20260903141515 64 0.0 0.0 0.00 0.00 0.00 97 1015.7
20260903141035 63 0.0 0.0 0.00 0.00 0.00 97 1015.7
20260903140515 63 0.0 0.0 0.00 0.00 0.00 98 1015.8
20260903140035 63 0.0 0.0 0.00 0.00 0.00 97 1015.8
20260903135515 63 0.0 1.0 0.00 0.00 0.00 98 1015.8
20260903135015 63 0.0 0.0 0.00 0.00 0.00 98 1015.7
20260903134515 63 0.0 1.0 0.00 0.00 0.00 98 1015.7
20260903134015 63 0.0 0.0 0.00 0.00 0.00 98 1015.7
20260903133515 63 0.0 0.0 0.00 0.00 0.00 98 1015.7
20260903133015 63 0.0 0.0 0.00 0.00 0.00 98 1015.7
20260903132515 63 0.0 0.0 0.00 0.00 0.00 98 1015.8
20260903132015 62 0.0 0.0 0.00 0.00 0.00 98 1015.8
20260903131515 62 0.0 0.0 0.00 0.00 0.00 98 1015.7
20260903131035 62 0.0 0.0 0.00 0.00 0.00 98 1015.8
20260903130515 62 0.0 0.0 0.00 0.00 0.00 98 1015.7
20260903130038 62 0.0 0.0 0.00 0.00 0.00 98 1015.7
20260903125515 62 0.0 0.0 0.00 0.00 0.00 98 1015.7
20260903125035 62 0.0 0.0 0.00 0.00 0.00 98 1015.7
20260903124515 62 0.0 0.0 0.00 0.00 0.00 98 1015.7
20260903124015 62 0.0 0.0 0.00 0.00 0.00 98 1015.7
20260903123515 62 0.0 1.0 0.00 0.00 0.00 98 1015.8
20260903123015 61 0.0 0.0 0.00 0.00 0.00 98 1015.8
20260903122515 61 0.0 0.0 0.00 0.00 0.00 98 1015.8
20260903122015 61 0.0 1.0 0.00 0.00 0.00 98 1015.9
20260903121535 61 0.0 1.0 0.00 0.00 0.00 98 1015.9
20260903121015 61 0.0 1.0 0.00 0.00 0.00 98 1015.9
20260903120515 61 0.0 0.0 0.00 0.00 0.00 98 1015.8
20260903120015 61 0.0 0.0 0.00 0.00 0.00 98 1015.8
20260903115515 61 0.0 0.0 0.00 0.00 0.00 98 1015.8
20260903115015 61 0.0 0.0 0.00 0.00 0.00 98 1015.9
20260903114515 61 0.0 0.0 0.00 0.00 0.00 98 1016.0
20260903114015 60 0.0 0.0 0.00 0.00 0.00 98 1015.9
20260903113515 60 0.0 0.0 0.00 0.00 0.00 98 1016.0
20260903113015 60 0.0 0.0 0.00 0.00 0.00 98 1016.0
20260903112555 60 0.0 0.0 0.00 0.00 0.00 98 1016.0
20260903112015 60 0.0 1.0 0.00 0.00 0.00 98 1016.0
20260903111555 60 0.0 2.0 0.00 0.00 0.00 98 1016.1
20260903111015 60 0.0 2.0 0.00 0.00 0.00 98 1016.0
20260903110515 59 0.0 1.0 0.00 0.00 0.00 98 1016.1
20260903110015 59 0.0 1.0 0.00 0.00 0.00 98 1016.1
20260903105515 59 0.0 1.0 0.00 0.00 0.00 98 1016.0
20260903105015 59 0.0 0.0 0.00 0.00 0.00 98 1016.0
20260903104515 59 0.0 1.0 0.00 0.00 0.00 98 1016.1
20260903104015 59 0.0 2.0 0.00 0.00 0.00 98 1016.1
20260903103515 59 0.0 1.0 0.00 0.00 0.00 98 1016.1
20260903103015 59 0.0 1.0 0.00 0.00 0.00 98 1016.0
20260903102515 59 113 1.0 4.0 0.00 0.00 0.00 98 1015.9
20260903102015 59 90 3.0 5.0 0.00 0.00 0.00 98 1015.8
20260903101515 59 113 2.0 7.0 0.00 0.00 0.00 98 1015.8
20260903101015 59 135 3.0 5.0 0.00 0.00 0.00 98 1015.9
20260903100515 59 135 1.0 3.0 0.00 0.00 0.00 98 1015.9
20260903100035 59 90 2.0 4.0 0.00 0.00 0.00 98 1015.9
20260903095515 59 135 2.0 7.0 0.00 0.00 0.00 98 1015.8
20260903095015 59 135 1.0 4.0 0.00 0.00 0.00 98 1015.8
20260903094515 59 135 1.0 4.0 0.00 0.00 0.00 98 1015.8
20260903094015 59 135 2.0 5.0 0.00 0.00 0.00 97 1015.7
20260903093515 59 135 2.0 4.0 0.00 0.00 0.00 97 1015.8
20260903093015 59 135 2.0 5.0 0.00 0.00 0.00 97 1015.8
20260903092515 59 158 2.0 5.0 0.00 0.00 0.00 97 1015.9
20260903092015 59 135 2.0 5.0 0.00 0.00 0.00 97 1015.9
20260903091535 60 113 2.0 3.0 0.00 0.00 0.00 97 1015.9
20260903091015 60 113 1.0 3.0 0.00 0.00 0.00 97 1015.9
20260903090535 60 113 2.0 4.0 0.00 0.00 0.00 97 1015.9
20260903090015 60 135 1.0 3.0 0.00 0.00 0.00 97 1016.0
20260903085515 59 135 1.0 3.0 0.00 0.00 0.00 97 1016.1
20260903085015 59 135 1.0 3.0 0.00 0.00 0.00 98 1016.1
20260903084515 59 0.0 3.0 0.00 0.00 0.00 98 1016.2
20260903084035 59 68 1.0 2.0 0.00 0.00 0.00 98 1016.2
20260903083515 59 113 1.0 3.0 0.00 0.00 0.00 98 1016.2
20260903083015 59 90 2.0 4.0 0.00 0.00 0.00 98 1016.1
20260903082515 59 90 2.0 4.0 0.00 0.00 0.00 98 1016.2
20260903082015 59 68 2.0 5.0 0.00 0.00 0.00 98 1016.2
20260903081535 59 113 2.0 4.0 0.00 0.00 0.00 97 1016.3
20260903081035 59 113 2.0 4.0 0.00 0.00 0.00 97 1016.4
20260903080515 60 113 3.0 5.0 0.00 0.00 0.00 97 1016.4
20260903080015 60 113 2.0 4.0 0.00 0.00 0.00 97 1016.4
20260903075515 60 113 2.0 5.0 0.00 0.00 0.00 97 1016.4
20260903075015 60 113 3.0 5.0 0.00 0.00 0.00 96 1016.4
20260903074515 60 113 3.0 5.0 0.00 0.00 0.00 96 1016.4
20260903074035 60 135 3.0 7.0 0.00 0.00 0.00 96 1016.5
20260903073515 60 90 2.0 5.0 0.00 0.00 0.00 96 1016.5
20260903073015 60 135 3.0 5.0 0.00 0.00 0.00 96 1016.5
20260903072515 60 135 4.0 7.0 0.00 0.00 0.00 96 1016.5
20260903072015 60 135 3.0 6.0 0.00 0.00 0.00 96 1016.5
20260903071515 60 113 3.0 6.0 0.00 0.00 0.00 96 1016.6
20260903071015 60 90 3.0 6.0 0.00 0.00 0.00 96 1016.7
20260903070515 60 113 3.0 5.0 0.00 0.00 0.00 96 1016.9
20260903070015 60 113 3.0 6.0 0.00 0.00 0.00 96 1016.7
20260903065515 60 135 1.0 5.0 0.00 0.00 0.00 96 1016.9
20260903065055 60 135 2.0 8.0 0.00 0.00 0.00 96 1016.8
20260903064535 60 135 1.0 4.0 0.00 0.00 0.00 96 1016.9
20260903064015 60 113 2.0 4.0 0.00 0.00 0.00 96 1016.9
20260903063515 60 90 2.0 5.0 0.00 0.00 0.00 96 1016.8
20260903063015 60 90 2.0 6.0 0.00 0.00 0.00 95 1016.8
20260903062515 60 113 3.0 7.0 0.00 0.00 0.00 95 1016.8
20260903062015 60 90 4.0 8.0 0.00 0.00 0.00 95 1016.8
20260903061515 60 90 2.0 7.0 0.00 0.00 0.00 95 1016.9
20260903061015 60 113 2.0 5.0 0.00 0.00 0.00 95 1017.0
20260903060515 60 135 2.0 5.0 0.00 0.00 0.00 94 1017.1
20260903060015 60 90 2.0 6.0 0.00 0.00 0.00 94 1017.2
20260903055516 60 113 1.0 3.0 0.00 0.00 0.00 94 1017.2
20260903055015 60 90 2.0 4.0 0.00 0.00 0.00 93 1017.3
20260903054515 60 68 3.0 6.0 0.00 0.00 0.00 93 1017.3
20260903054015 61 90 2.0 5.0 0.00 0.00 0.00 92 1017.4
20260903053515 61 68 2.0 6.0 0.00 0.00 0.00 91 1017.6
20260903053015 61 135 4.0 11.0 0.00 0.00 0.00 90 1017.6
20260903052515 61 68 3.0 9.0 0.00 0.00 0.00 89 1017.7
20260903052015 61 113 2.0 6.0 0.00 0.00 0.00 88 1017.7
20260903051515 61 135 4.0 7.0 0.00 0.00 0.00 88 1017.6
20260903051015 61 158 2.0 6.0 0.00 0.00 0.00 88 1017.6
20260903050535 62 113 3.0 10.0 0.00 0.00 0.00 87 1017.7
20260903050015 62 135 2.0 5.0 0.00 0.00 0.00 87 1017.7
20260903045515 62 135 2.0 6.0 0.00 0.00 0.00 87 1017.6
20260903045035 62 113 2.0 7.0 0.00 0.00 0.00 87 1017.6
20260903044515 62 113 2.0 8.0 0.00 0.00 0.00 86 1017.6
20260903044015 62 158 4.0 11.0 0.00 0.00 0.00 86 1017.7
20260903043515 62 135 3.0 8.0 0.00 0.00 0.00 85 1017.7
20260903043015 62 113 5.0 10.0 0.00 0.00 0.00 85 1017.8
20260903042515 62 135 4.0 8.0 0.00 0.00 0.00 85 1017.9
20260903042035 62 135 3.0 10.0 0.00 0.00 0.00 85 1017.8
20260903041515 62 135 3.0 7.0 0.00 0.00 0.00 84 1017.8
20260903041015 62 113 5.0 9.0 0.00 0.00 0.00 84 1017.7
20260903040515 62 135 5.0 11.0 0.00 0.00 0.00 84 1017.7
20260903040015 62 135 5.0 13.0 0.00 0.00 0.00 84 1017.6
20260903035515 62 135 4.0 13.0 0.00 0.00 0.00 85 1017.6
20260903035015 62 68 5.0 9.0 0.00 0.00 0.00 85 1017.4
20260903034516 62 135 5.0 14.0 0.00 0.00 0.00 86 1017.6
20260903034015 62 90 5.0 12.0 0.00 0.00 0.00 86 1017.7
20260903033515 62 113 2.0 8.0 0.00 0.00 0.00 86 1017.9
20260903033015 62 135 3.0 6.0 0.00 0.01 0.00 85 1018.1
20260903032515 62 90 4.0 12.0 0.00 0.01 0.00 85 1018.1
20260903032035 62 113 4.0 12.0 0.00 0.01 0.00 85 1018.2
20260903031515 63 135 5.0 10.0 0.00 0.01 0.00 85 1018.3
20260903031035 63 135 5.0 10.0 0.00 0.01 0.00 86 1018.4
20260903030515 63 135 4.0 8.0 0.00 0.01 0.00 85 1018.6
20260903030055 63 135 3.0 6.0 0.00 0.01 0.00 86 1018.8
20260903025515 63 135 3.0 9.0 0.00 0.01 0.00 87 1018.8
20260903025015 63 90 3.0 9.0 0.00 0.01 0.00 87 1018.8
20260903024555 63 90 3.0 8.0 0.00 0.01 0.00 88 1019.0
20260903024016 63 113 2.0 7.0 0.00 0.01 0.00 88 1019.0
20260903023516 63 90 3.0 7.0 0.00 0.01 0.00 88 1019.3
20260903023015 63 135 2.0 6.0 0.00 0.02 0.00 89 1019.2
20260903022515 63 180 3.0 10.0 0.00 0.02 0.00 89 1019.1
20260903022015 63 113 2.0 5.0 0.00 0.02 0.00 90 1019.1
20260903021515 63 135 2.0 8.0 0.00 0.02 0.00 90 1019.0
20260903021015 63 135 3.0 10.0 0.00 0.02 0.00 90 1019.0
20260903020515 63 135 4.0 12.0 0.00 0.02 0.00 90 1019.0
20260903020015 63 135 4.0 13.0 0.00 0.02 0.00 90 1019.1
20260903015536 63 90 4.0 12.0 0.00 0.02 0.00 91 1019.3
20260903015015 63 68 5.0 11.0 0.00 0.02 0.00 91 1019.4
20260903014515 63 158 4.0 15.0 0.00 0.02 0.00 91 1019.5
20260903014015 63 135 4.0 12.0 0.00 0.02 0.00 90 1019.5
20260903013515 63 113 4.0 17.0 0.00 0.02 0.00 90 1019.6
20260903013015 63 158 6.0 16.0 0.00 0.02 0.00 90 1019.5
20260903012515 63 113 2.0 6.0 0.00 0.02 0.00 90 1019.6
20260903012016 63 135 4.0 8.0 0.00 0.02 0.00 90 1019.5
20260903011515 63 113 4.0 11.0 0.00 0.02 0.00 90 1019.6
20260903011015 63 113 3.0 8.0 0.00 0.02 0.00 90 1019.5
20260903010536 63 90 3.0 7.0 0.00 0.02 0.00 90 1019.5
20260903010015 63 135 3.0 8.0 0.00 0.02 0.00 90 1019.6
20260903005516 63 158 3.0 6.0 0.00 0.02 0.00 89 1019.6
20260903005016 63 68 3.0 7.0 0.00 0.02 0.00 89 1019.5
20260903004516 63 68 3.0 7.0 0.00 0.02 0.00 89 1019.5
20260903004015 63 113 4.0 10.0 0.00 0.02 0.00 90 1019.5
20260903003515 63 90 4.0 11.0 0.00 0.02 0.00 90 1019.5
20260903003015 63 90 5.0 10.0 0.00 0.02 0.00 90 1019.3
20260903002515 63 90 3.0 8.0 0.00 0.02 0.00 91 1019.3
20260903002016 63 135 4.0 7.0 0.00 0.02 0.00 91 1019.2
20260903001515 63 113 3.0 9.0 0.00 0.02 0.00 91 1019.1
20260903001015 63 113 4.0 7.0 0.00 0.02 0.00 91 1019.3
20260903000516 63 90 4.0 9.0 0.00 0.02 0.00 91 1019.2
20260903000035 63 135 3.0 8.0 0.00 0.02 0.00 91 1019.2
20260902235516 63 90 5.0 9.0 0.00 0.02 0.00 91 1019.0
20260902235015 63 135 6.0 13.0 0.00 0.02 0.00 91 1019.1
20260902234515 63 113 6.0 11.0 0.00 0.02 0.00 91 1019.0
20260902234015 63 135 5.0 11.0 0.00 0.02 0.00 91 1019.0
20260902233515 63 113 6.0 15.0 0.00 0.02 0.00 91 1018.9
20260902233015 63 113 6.0 12.0 0.00 0.02 0.00 91 1019.0
20260902232515 63 113 7.0 17.0 0.00 0.02 0.00 91 1019.1
20260902232036 63 68 5.0 8.0 0.00 0.02 0.00 91 1019.3
20260902231535 63 90 6.0 11.0 0.00 0.02 0.00 91 1019.4
20260902231055 63 113 5.0 8.0 0.00 0.02 0.00 90 1019.4
20260902230515 63 90 5.0 8.0 0.00 0.02 0.00 90 1019.6
20260902230015 63 113 3.0 7.0 0.00 0.02 0.00 90 1019.8
20260902225516 63 135 3.0 7.0 0.00 0.02 0.00 90 1020.0
20260902225015 63 90 3.0 7.0 0.00 0.02 0.00 91 1020.2
20260902224516 63 113 2.0 5.0 0.00 0.02 0.00 90 1020.5
20260902224015 63 113 3.0 7.0 0.00 0.02 0.00 90 1020.7
20260902223515 63 135 2.0 5.0 0.00 0.02 0.00 90 1020.7
20260902223035 63 113 2.0 5.0 0.00 0.02 0.00 90 1020.9
20260902222515 63 135 3.0 8.0 0.00 0.02 0.00 90 1020.9
20260902222015 63 113 3.0 5.0 0.00 0.02 0.00 90 1020.9
20260902221515 63 135 3.0 7.0 0.00 0.02 0.00 90 1021.0
20260902221015 63 90 2.0 6.0 0.00 0.02 0.00 90 1020.9
20260902220520 63 135 2.0 4.0 0.00 0.02 0.00 90 1021.0
20260902220015 63 135 3.0 8.0 0.00 0.02 0.00 90 1021.0
20260902215515 63 113 3.0 6.0 0.00 0.02 0.00 90 1021.0
20260902215015 63 90 2.0 5.0 0.00 0.02 0.00 91 1021.1
20260902214516 63 113 3.0 6.0 0.00 0.02 0.00 92 1021.2
20260902214016 63 90 3.0 9.0 0.00 0.02 0.00 92 1021.2
20260902213516 63 90 3.0 6.0 0.00 0.02 0.00 93 1021.1
20260902213015 63 135 2.0 5.0 0.00 0.02 0.00 93 1021.0
20260902212515 63 135 3.0 6.0 0.00 0.02 0.00 92 1021.1
20260902212015 63 68 5.0 10.0 0.00 0.02 0.00 92 1021.1
20260902211516 63 113 4.0 8.0 0.00 0.02 0.00 92 1020.9
20260902211016 63 135 3.0 9.0 0.00 0.02 0.00 92 1021.0
20260902210515 63 113 4.0 9.0 0.00 0.02 0.00 92 1020.9
20260902210016 62 68 3.0 8.0 0.00 0.02 0.00 92 1020.8
20260902205515 62 113 5.0 9.0 0.00 0.02 0.00 92 1020.8
20260902205016 62 90 4.0 8.0 0.00 0.02 0.00 93 1021.0
20260902204515 62 68 4.0 7.0 0.00 0.02 0.00 93 1021.0
20260902204015 62 90 5.0 8.0 0.00 0.02 0.00 92 1021.1
20260902203515 62 90 4.0 9.0 0.00 0.02 0.00 92 1021.3
20260902203015 63 113 4.0 11.0 0.00 0.02 0.00 92 1021.2
20260902202515 63 135 3.0 9.0 0.00 0.02 0.00 92 1021.2
20260902202015 63 135 5.0 11.0 0.00 0.02 0.00 92 1021.1
20260902201516 63 90 4.0 8.0 0.00 0.02 0.00 92 1020.9
20260902201015 63 90 5.0 11.0 0.00 0.02 0.00 92 1021.1
20260902200516 63 135 5.0 14.0 0.00 0.02 0.00 91 1021.2
20260902200016 63 113 5.0 10.0 0.00 0.02 0.00 91 1021.2
20260902195515 63 135 3.0 8.0 0.00 0.02 0.00 92 1021.3